Flag for U.S.A. Weather past 2 weeks in Myrtle Beach, South Carolina, U.S.A.

52 °F


Feels Like: 52 °F
Forecast: 53 / 71 °F
Wind: No wind

Location: Myrtle Beach Air Force Base

Current Time: Nov 28, 2015 at 7:26:57 AM

Latest Report: Nov 28, 2015 at 6:45 AM

Visibility: 10 mi

Pressure: 30.30 "Hg

Humidity: 77%

Dew point: 45 °F

Location of Myrtle BeachLocation

Historic Weather in Myrtle Beach — Graph


Myrtle Beach temperature yesterday

Maximum temperature yesterday: 75 °F (at 12:45 PM)
Minimum temperature yesterday: 54 °F (at 5:35 AM)
Average temperature yesterday: 60 °F

Past Weeks' High & Low Weather Summary

High77 °F (Nov 18, 11:48 AM)88% (Nov 20, 12:35 AM)30.66 "Hg (Nov 20, 12:35 AM)
Low34 °F (Nov 24, 3:35 AM)24% (Nov 14, 1:45 PM)29.89 "Hg (Nov 22, 3:55 AM)
Average55 °F65%30.28 "Hg
* Reported Nov 13 5:15 AM — Nov 28 5:55 AM, Myrtle Beach, Weather by CustomWeather, © 2015

Note: Actual official high and low records may vary slightly from our data, if they occured in-between our weather recording intervals... More about our weather records


Myrtle Beach weather history for previous 24 hours

Time TempWeatherWind HumidityBarometerVisibility
5:55 AM
Sat, Nov 28
52 °FClear.3 mph77%30.29 "Hg10 mi
5:35 AM52 °FClear.No wind77%30.29 "Hg10 mi
5:15 AM52 °FClear.3 mph82%30.29 "Hg10 mi
4:55 AM52 °FClear.3 mph77%30.29 "Hg10 mi
4:35 AM52 °FClear.No wind77%30.29 "Hg10 mi
4:15 AM54 °FClear.5 mph77%30.29 "Hg10 mi
3:55 AM54 °FClear.5 mph82%30.29 "Hg10 mi
3:35 AM55 °FClear.3 mph77%30.29 "Hg10 mi
3:15 AM54 °FClear.5 mph82%30.30 "Hg10 mi
2:55 AM54 °FClear.3 mph77%30.31 "Hg10 mi
1:35 AM55 °FClear.5 mph77%30.32 "Hg10 mi
1:15 AM55 °FClear.6 mph77%30.33 "Hg10 mi
12:55 AM55 °FClear.6 mph77%30.33 "Hg10 mi
12:35 AM57 °FClear.7 mph82%30.33 "Hg10 mi
11:55 PM
Fri, Nov 27
54 °FClear.5 mph82%30.34 "Hg10 mi
11:35 PM55 °FClear.No wind77%30.34 "Hg10 mi
11:15 PM57 °FClear.No wind77%30.35 "Hg10 mi
10:55 PM57 °FClear.5 mph77%30.35 "Hg10 mi
6:50 PM63 °FClear.8 mph68%30.37 "Hg10 mi
5:45 PM64 °FPassing clouds.9 mph68%30.37 "Hg10 mi
4:45 PM66 °FPassing clouds.12 mph68%30.37 "Hg10 mi
3:45 PM72 °FScattered clouds.12 mph57%30.37 "Hg10 mi
2:50 PM73 °FScattered clouds.12 mph53%30.38 "Hg10 mi
1:45 PM75 °FScattered clouds.12 mph50%30.41 "Hg10 mi
12:45 PM75 °FPassing clouds.14 mph47%30.43 "Hg10 mi
11:45 AM73 °FSunny.14 mph53%30.45 "Hg10 mi
10:50 AM72 °FSunny.13 mph53%30.48 "Hg10 mi
9:45 AM66 °FSunny.12 mph64%30.50 "Hg10 mi
8:45 AM61 °FSunny.12 mph72%30.50 "Hg10 mi
7:45 AM55 °FSunny.12 mph77%30.49 "Hg10 mi
Weather by CustomWeather, © 2015

See weather overviewHow to use our weather pages